{"data":{"norad_id":69135,"epoch":"2026-09-19T23:05:49.206912Z","epoch_age_seconds":69627,"freshness":"FRESH","line1":"1 69135U 26110M   26262.96237508  .00016802  00000+0  52139-3 0  9991","line2":"2 69135  97.2854  98.0249 0001883  31.4086 328.7269 15.33458050 20132","mean_motion":15.3345805,"eccentricity":0.0001883,"inclination_deg":97.2854,"raan_deg":98.0249,"arg_perigee_deg":31.4086,"mean_anomaly_deg":328.7269,"bstar":0.00052139,"rev_number":2013,"period_min":93.905405498377,"perigee_km":464.21568946928,"apogee_km":466.79300480061,"semimajor_km":6843.6413471349,"source":"CELESTRAK","updated_at":"2026-09-20T09:00:44.086391Z"}}